DW8587 Weather Reports


time (UTC)temp
C
wind
direction
speed
KPH
gust
KPH
rain 1hr
cm
rain 24hr
cm
rain mn
cm
humidity
%
barometer
mb
20260902021507 21 40 4.8 6.4 0.00 0.00 0.00 84 1017.0
20260902020005 21 23 3.2 4.8 0.00 0.00 0.00 84 1016.9
20260902014502 21 36 3.2 8.0 0.00 0.00 0.00 84 1016.9
20260902013002 21 36 3.2 6.4 0.00 0.00 0.00 83 1016.9
20260902011501 21 35 3.2 8.0 0.00 0.00 0.00 83 1016.9
20260902010105 21 34 4.8 8.0 0.00 0.00 0.00 83 1016.9
20260902004559 21 36 4.8 8.0 0.00 0.00 0.00 83 1017.0
20260902003058 21 40 1.6 8.0 0.00 0.00 0.00 83 1017.0
20260902001603 21 355 4.8 6.4 0.00 0.00 0.00 82 1017.0
20260902000057 21 342 3.2 6.4 0.00 0.00 0.00 82 1017.0
20260901234604 22 37 6.4 9.7 0.00 0.00 0.00 82 1017.1
20260901233053 22 35 3.2 8.0 0.00 0.00 0.00 81 1016.9
20260901231557 22 40 3.2 6.4 0.00 0.00 0.00 80 1017.0
20260901230104 22 39 6.4 9.7 0.00 0.00 0.00 80 1017.0
20260901224551 22 40 4.8 8.0 0.00 0.00 0.00 80 1017.0
20260901223050 22 346 4.8 6.4 0.00 0.00 0.00 80 1017.0
20260901221604 22 28 3.2 4.8 0.00 0.00 0.00 81 1017.0
20260901220046 22 5 3.2 8.0 0.00 0.00 0.00 81 1016.8
20260901214545 22 23 4.8 8.0 0.00 0.00 0.00 81 1016.8
20260901213051 22 24 4.8 8.0 0.00 0.00 0.00 81 1016.9
20260901211545 22 42 3.2 6.4 0.00 0.00 0.00 81 1016.8
20260901210044 22 42 3.2 6.4 0.00 0.00 0.00 80 1016.8
20260901204544 23 38 4.8 8.0 0.00 0.00 0.00 79 1016.8
20260901203046 23 42 3.2 8.0 0.00 0.00 0.00 78 1016.7
20260901201548 23 40 3.2 6.4 0.00 0.00 0.00 77 1016.7
20260901200041 23 44 4.8 8.0 0.00 0.00 0.00 77 1016.6
20260901194541 23 37 0.0 0.0 0.00 0.00 0.00 76 1016.6
20260901193040 24 37 1.6 6.4 0.00 0.00 0.00 76 1016.3
20260901191543 24 44 6.4 9.7 0.00 0.00 0.00 75 1016.2
20260901190040 25 39 4.8 8.0 0.00 0.00 0.00 73 1016.0
20260901184539 25 40 3.2 4.8 0.00 0.00 0.00 72 1015.8
20260901183059 26 40 3.2 6.4 0.00 0.00 0.00 70 1015.7
20260901181539 26 49 3.2 4.8 0.00 0.00 0.00 68 1015.6
20260901180038 27 114 0.0 0.0 0.00 0.00 0.00 66 1015.5
20260901174537 27 114 0.0 0.0 0.00 0.00 0.00 64 1015.5
20260901173049 27 114 0.0 3.2 0.00 0.00 0.00 62 1015.3
20260901171549 27 114 1.6 4.8 0.00 0.00 0.00 61 1015.1
20260901170047 28 89 1.6 4.8 0.00 0.00 0.00 61 1015.2
20260901164535 28 72 3.2 9.7 0.00 0.00 0.00 60 1015.3
20260901163051 28 96 4.8 8.0 0.00 0.00 0.00 58 1015.3
20260901161541 28 44 4.8 9.7 0.00 0.00 0.00 56 1015.3
20260901160038 29 49 3.2 6.4 0.00 0.00 0.00 56 1015.3
20260901154534 29 78 4.8 11.3 0.00 0.00 0.00 56 1015.4
20260901153033 29 194 6.4 14.5 0.00 0.00 0.00 53 1015.4
20260901151539 28 155 6.4 12.9 0.00 0.00 0.00 55 1015.4
20260901150032 29 105 6.4 16.1 0.00 0.00 0.00 54 1015.3
20260901144533 29 178 4.8 11.3 0.00 0.00 0.00 54 1015.6
20260901143029 29 207 1.6 9.7 0.00 0.00 0.00 55 1015.6
20260901141537 28 203 4.8 14.5 0.00 0.00 0.00 54 1015.7
20260901140027 28 137 8.0 14.5 0.00 0.00 0.00 55 1015.7
20260901134526 28 152 4.8 17.7 0.00 0.00 0.00 56 1015.7
20260901133025 28 109 4.8 17.7 0.00 0.00 0.00 57 1015.9
20260901131525 28 178 6.4 14.5 0.00 0.00 0.00 57 1016.1
20260901130023 28 42 3.2 16.1 0.00 0.00 0.00 59 1016.2
20260901124522 28 163 6.4 12.9 0.00 0.00 0.00 58 1016.5
20260901123031 28 32 1.6 9.7 0.00 0.00 0.00 60 1016.6
20260901121521 27 61 1.6 14.5 0.00 0.00 0.00 61 1016.7
20260901120021 27 51 3.2 9.7 0.00 0.00 0.00 62 1016.8
20260901114518 27 118 4.8 14.5 0.00 0.00 0.00 62 1016.9
20260901113018 27 103 3.2 9.7 0.00 0.00 0.00 60 1016.9
20260901111517 26 139 6.4 14.5 0.00 0.00 0.00 62 1017.0
20260901110117 26 136 8.0 14.5 0.00 0.00 0.00 61 1017.1
20260901104515 26 148 4.8 17.7 0.00 0.00 0.00 67 1017.1
20260901103013 26 132 8.0 16.1 0.00 0.00 0.00 67 1017.1
20260901101513 26 223 3.2 9.7 0.00 0.00 0.00 70 1017.2
20260901100006 25 67 0.0 6.4 0.00 0.00 0.00 73 1017.3
20260901094504 25 113 3.2 6.4 0.00 0.00 0.00 74 1017.3
20260901093003 25 89 3.2 11.3 0.00 0.00 0.00 74 1017.3
20260901091501 25 93 4.8 6.4 0.00 0.00 0.00 74 1017.3
20260901084622 24 80 6.4 16.1 0.00 0.00 0.00 75 1017.2
20260901083057 24 71 4.8 12.9 0.00 0.00 0.00 75 1017.2
20260901081556 24 114 4.8 12.9 0.00 0.00 0.00 74 1017.1
20260901080109 25 109 8.0 16.1 0.00 0.00 0.00 72 1017.0
20260901074604 23 52 11.3 22.5 0.00 0.00 0.00 73 1016.7
20260901073050 23 53 4.8 9.7 0.00 0.00 0.00 71 1016.8
20260901071542 23 31 1.6 9.7 0.00 0.00 0.00 71 1016.8
20260901070040 23 124 3.2 14.5 0.00 0.00 0.00 67 1016.8
20260901064539 23 52 4.8 11.3 0.00 0.00 0.00 62 1016.6
20260901063036 23 49 1.6 4.8 0.00 0.00 0.00 58 1016.6
20260901061532 22 49 1.6 8.0 0.00 0.00 0.00 58 1016.4
20260901060037 22 39 3.2 9.7 0.00 0.00 0.00 57 1016.0
20260901054522 21 26 6.4 12.9 0.00 0.00 0.00 57 1015.8
20260901053018 22 30 6.4 14.5 0.00 0.00 0.00 55 1015.6
20260901051515 22 42 9.7 14.5 0.00 0.00 0.00 54 1015.5
20260901050012 21 60 4.8 16.1 0.00 0.00 0.00 56 1015.2
20260901044508 20 32 6.4 9.7 0.00 0.00 0.00 62 1015.0
20260901043008 19 30 3.2 6.4 0.00 0.00 0.00 65 1014.9
20260901041507 19 338 4.8 8.0 0.00 0.00 0.00 66 1014.7
20260901040005 20 24 1.6 4.8 0.00 0.00 0.00 64 1014.5
20260901034502 20 28 1.6 4.8 0.00 0.00 0.00 64 1014.4
20260901033001 20 336 3.2 6.4 0.00 0.00 0.00 63 1014.1
20260901031600 20 46 1.6 4.8 0.00 0.00 0.00 64 1014.0
20260901030106 20 350 3.2 6.4 0.00 0.00 0.00 68 1013.9
20260901024600 19 351 4.8 9.7 0.00 0.00 0.00 72 1013.8
20260901023102 18 5 3.2 6.4 0.00 0.00 0.00 75 1013.9